Weather History for Louisville Bowman, KY

Change the Weather History Date:

Thursday, January 9, 2014

  Actual Average Record
Temperature  
Mean Temperature 36 °F 34 °F  
Max Temperature 42 °F 42 °F 67 °F (1949)
Min Temperature 29 °F 26 °F 1 °F (1962)
Degree Days  
Heating Degree Days 29 31  
Month to date heating degree days 359 273  
Since 1 July heating degree days 2107 1937  
Cooling Degree Days 0 0  
Month to date cooling degree days 0 0  
Year to date cooling degree days 0 0  
Moisture  
Dew Point 25 °F    
Average Humidity 66    
Maximum Humidity 96    
Minimum Humidity 36    
Precipitation  
Precipitation 0.03 in 0.10 in 0.68 in (1965)
Month to date precipitation 0.79 1.08  
Year to date precipitation 0.79 1.08  
Sea Level Pressure  
Sea Level Pressure 30.42 in    
Wind  
Wind Speed 3 mph (SSE)    
Max Wind Speed 14 mph    
Max Gust Speed 20 mph    
Visibility 8 miles    
Events Rain , Snow    
T = Trace of Precipitation, MM = Missing Value Source: NWS Daily Summary

Daily Weather History Graph

Daily Weather History Graph

Search for Another Location

Airport:

Trip Planner

Search our weather history database for the weather conditions in past years. The results will help you decide how hot, cold, wet, or windy it might be!

Date:

Astronomy

Jan. 09, 2014 Rise Set
Actual Time 7:59 AM EST 5:40 PM EST
Civil Twilight 7:30 AM EST 6:09 PM EST
Nautical Twilight 6:57 AM EST 6:42 PM EST
Astronomical Twilight 6:25 AM EST 7:14 PM EST
Moon 1:05 PM EST (1/9) 2:08 AM EST (1/9)
Length of Visible Light 10h 39m
Length of Day
9h 41m
Waxing Gibbous, 66% of the Moon is Illuminated
Jan 9
Waxing Gibbous
Jan 15
Full
Jan 24
Last Quarter
Jan 30
New
Feb 6
First Quarter

Hourly Weather History & Observations

Time (EST) Temp. Windchill Dew Point Humidity Pressure Visibility Wind Dir Wind Speed Gust Speed Precip Events Conditions
12:53 AM 32.0 °F - 19.9 °F 61% 30.48 in 10.0 mi Calm Calm - N/A   Overcast
1:53 AM 30.9 °F - 21.0 °F 67% 30.49 in 8.0 mi Calm Calm - 0.00 in Snow Light Snow
2:36 AM 30.2 °F 26.7 °F 24.8 °F 80% 30.49 in 2.0 mi South 3.5 mph - 0.00 in Snow Light Snow
2:53 AM 28.9 °F - 25.0 °F 85% 30.51 in 2.5 mi Calm Calm - 0.00 in Snow Light Snow
3:29 AM 28.4 °F - 26.6 °F 93% 30.49 in 3.0 mi Calm Calm - 0.00 in Snow Light Snow
3:53 AM 28.9 °F - 27.0 °F 92% 30.50 in 4.0 mi Calm Calm - 0.00 in Snow Light Snow
4:53 AM 30.0 °F - 26.1 °F 85% 30.49 in 8.0 mi Calm Calm - 0.00 in   Overcast
5:53 AM 30.0 °F - 27.0 °F 88% 30.50 in 8.0 mi Calm Calm - N/A   Overcast
6:53 AM 30.0 °F 26.5 °F 26.1 °F 85% 30.49 in 9.0 mi SE 3.5 mph - N/A   Mostly Cloudy
7:18 AM 30.2 °F - 24.8 °F 80% 30.48 in 10.0 mi Calm Calm - N/A   Mostly Cloudy
7:53 AM 30.0 °F - 23.0 °F 75% 30.50 in 10.0 mi Calm Calm - N/A   Mostly Cloudy
8:53 AM 30.0 °F 25.2 °F 21.9 °F 72% 30.51 in 10.0 mi East 4.6 mph - N/A   Overcast
9:53 AM 32.0 °F 26.4 °F 21.0 °F 64% 30.49 in 10.0 mi East 5.8 mph - N/A   Mostly Cloudy
10:53 AM 34.0 °F 29.8 °F 21.0 °F 59% 30.47 in 10.0 mi East 4.6 mph - N/A   Partly Cloudy
11:53 AM 37.0 °F 33.3 °F 19.9 °F 50% 30.45 in 10.0 mi SE 4.6 mph - N/A   Overcast
12:53 PM 39.0 °F 34.0 °F 19.9 °F 46% 30.40 in 10.0 mi South 6.9 mph - N/A   Overcast
1:53 PM 41.0 °F 39.0 °F 19.0 °F 41% 30.36 in 10.0 mi SSE 3.5 mph - N/A   Overcast
2:53 PM 42.1 °F 40.2 °F 18.0 °F 38% 30.36 in 10.0 mi South 3.5 mph - N/A   Overcast
3:53 PM 41.0 °F 39.0 °F 18.0 °F 40% 30.37 in 10.0 mi SSE 3.5 mph - N/A   Overcast
4:53 PM 39.0 °F 32.8 °F 21.9 °F 50% 30.36 in 9.0 mi South 9.2 mph - N/A   Overcast
5:25 PM 35.6 °F 29.2 °F 28.4 °F 75% 30.36 in 2.5 mi South 8.1 mph - N/A Snow Light Snow
6:53 PM 35.1 °F 30.1 °F 30.9 °F 85% 30.35 in 10.0 mi SE 5.8 mph - 0.00 in   Overcast
7:53 PM 35.1 °F 32.2 °F 30.9 °F 85% 30.35 in 9.0 mi Variable 3.5 mph - 0.00 in Rain Light Rain
8:53 PM 34.0 °F - 32.0 °F 92% 30.34 in 9.0 mi Calm Calm - 0.01 in Rain Light Rain
9:53 PM 35.1 °F - 32.0 °F 89% 30.32 in 10.0 mi Calm Calm - 0.00 in   Overcast
10:53 PM 35.1 °F - 30.9 °F 85% 30.30 in 10.0 mi Calm Calm - N/A   Overcast
11:49 PM 35.6 °F - 32.0 °F 87% 30.28 in 10.0 mi Calm Calm - N/A   Overcast
11:53 PM 35.1 °F - 32.0 °F 89% 30.29 in 10.0 mi Calm Calm - N/A   Overcast